カタログに戻る

STARLINK-37328

運用中通信VLEO
NORAD 69160·PAYLOAD·🇺🇸 United States

打ち上げ May 21, 2026 から Cape Canaveral Space Force Station

Loading…

次のパス (今後24時間)

TLE

最新Source: CelesTrak SupGP

元期: Sep 15, 2026, 03:43 UTC

1 69160C 26111N   26258.15534722 -.00020864  00000+0 -61615-3 0  2586
2 69160  53.1577  90.7677 0001224  80.4018  49.5500 15.34415282    17

AllMySatでSTARLINK-37328をリアルタイム追跡

Download on the App Store